Back to catalog

ESSA 3

TOS-A

AliveWeatherLEO
NORAD 2435·PAYLOAD·🇺🇸 United States

Launched Oct 2, 1966 from Vandenberg Space Force Base

Loading…

Next Passes (next 24 hours)

TLE

FreshSource: Space-Track

Epoch: Sep 14, 2026, 11:42 UTC

1 02435U 66087A   26257.48807083 -.00000033  00000-0  49254-4 0  9996
2 02435 101.0625 154.8695 0063549 219.5844 314.5637 12.56881018750224

Track ESSA 3 in real time with AllMySat

Download on the App Store